Location: Baia de Cri?
(46.1667°N, 22.7167°E)
Time: 22:05:13
(UTC+00:00)

Meteor 2-19 Rocket - Pass Details

Date: 15 January 2026
Orbit: 935 x 959 km, 82.5° (Epoch: 10 February)

Event Time Altitude Azimuth Distance (km) Brightness Sun altitude
Rises 05:06:23 0° 349° (N) 3,613 7.2 -10.5°
Reaches altitude 10° 05:08:53 10° 348° (NNW) 2,662 6.5 -10.0°
Maximum altitude 05:14:56 74° 264° (W) 977 4.4 -9.1°
Drops below altitude 10° 05:20:56 10° 181° (S) 2,638 7.1 -8.1°
Sets 05:23:24 0° 179° (S) 3,578 7.8 -7.7°
